Regional Weather Roundup
Issued by NWS

Home | Current Version | Previous Version | Text Only | Print | Product List | Glossary On
Versions: 1 2 3 4 5 6 7 8 9 10 11 12 13 14 15 16 17 18 19 20 21 22 23 24 25 26 27 28 29 30 31 32 33 34 35 36 37 38 39 40 41 42 43 44 45 46 47 48 49 50
000
ASUS44 KLUB 312110
RWRTX
WEST TEXAS WEATHER ROUNDUP
NATIONAL WEATHER SERVICE LUBBOCK TX
400 PM CDT FRI JUL 31 2015

NOTE: "FAIR" INDICATES FEW OR NO CLOUDS BELOW 12,000 FEET WITH NO
SIGNIFICANT WEATHER AND/OR OBSTRUCTIONS TO VISIBILITY.

TXZ004-006>008-010-012-014-016-OKZ002-312200-
TEXAS PANHANDLE/OKLAHOMA PANHANDLE

CITY           SKY/WX    TMP DP  RH WIND       PRES   REMARKS
AMARILLO       MOSUNNY   84  64  50 N8        30.22F
BORGER         PTSUNNY   79  65  62 NE8       30.19F
CANADIAN       CLOUDY    83  66  56 NE8       30.14F
DALHART        PTSUNNY   82  66  58 SE8       30.23F
DUMAS          PTSUNNY   78  64  62 SE6       30.22F
GUYMON         MOSUNNY   82  62  50 SE8       30.18F
HEREFORD       MOSUNNY   85  66  52 MISG      30.22F
PAMPA          PTSUNNY   82  66  58 NE9       30.21F
$$

TXZ026-029-035-045-048-312200-
SOUTHERN PANHANDLE/SOUTH PLAINS/ROLLING PLAINS

CITY           SKY/WX    TMP DP  RH WIND       PRES   REMARKS
CHILDRESS      MOSUNNY   95  68  41 NE13G21   30.10F HX  99
SEMINOLE       PTSUNNY   94  49  21 SE6       30.15F
LUBBOCK        MOSUNNY   92  65  40 NE10      30.16F
PLAINVIEW      SUNNY     88  65  46 NE3       30.18F
SNYDER         SUNNY     96  58  28 NE3       30.10F HX  95
$$

TXZ052-054-060>062-072-078-127-140-154-169-312200-
PERMIAN BASIN/CONCHO VALLEY/BIG COUNTRY/EDWARDS PLATEAU

CITY           SKY/WX    TMP DP  RH WIND       PRES   REMARKS
ABILENE        MOSUNNY   98  58  26 E5        30.05F HX  97
BIG SPRING     MOSUNNY   95  54  25 N10       30.11F
BRADY          SUNNY     99  63  30 NE12      30.04F HX 100
BROWNWOOD      LGT RAIN  99  63  30 N10       30.03F HX 100
JUNCTION       PTSUNNY   99  60  27 NE9       30.03F HX  99
MIDLAND        PTSUNNY   96  53  23 E8G18     30.10F
ODESSA         MOSUNNY   98  51  20 E9G16     30.12F HX  95
SAN ANGELO     SUNNY    101  59  24 NE14G20   30.05F HX 101
SONORA         MOSUNNY   93  61  33 NE12      30.10F
SWEETWATER     MOSUNNY   98  54  23 E6        30.11F HX  96
WINK           PTSUNNY   98  51  20 SE13      30.08F HX  95
$$

TXZ055-058-074-075-080-082-312200-
FAR WEST/SOUTHWEST MOUNTAINS/TRANS PECOS

CITY           SKY/WX    TMP DP  RH WIND       PRES   REMARKS
ALPINE         MOSUNNY   88  51  27 E8G17     30.27F
DRYDEN           N/A    101  58  24 S10G21    30.04F HX 100
EL PASO        MOSUNNY   92  53  26 CALM      30.15F
FORT STOCKTON  MOSUNNY   95  54  25 E14G28    30.11F
GUADALUPE PASS MOSUNNY   84  54  35 E22       30.30F
MARFA          MOSUNNY   88  52  29 E8        30.25F
PECOS          SUNNY     99  49  18 E9        30.07F HX  95
PRESIDIO       FAIR      97  48  19 E8G23     30.06F
$$

TXZ014-016-019-021>030-083-312200
TEXAS TECH WEST TEXAS MESONET/TEXAS PANHANDLE/NORTHERN SOUTH PLAINS

CITY           SKY/WX    TMP DP  RH WIND       PRES   REMARKS
ABERNATHY 5ENE   N/A     89  62  40 E6        30.18F
AMARILLO 9NNE    N/A     81  67  62 NW2       30.20F
AMARILLO 7SSE    N/A     85  62  45 N7        30.22F
AMHERST 1NE      N/A     87  61  41 N5        30.20F
BOOTLEG 11WNW    N/A     79  62  55 S2        30.28F
CANADIAN 6E      N/A     82  66  58 N7        30.13F
CAPROCK CYN SP   N/A     87  65  48 N8        30.15F
CHILDRESS 2NNE   N/A     92  67  43 N15       30.10S HX  96
CLARENDON 2WSW   N/A     87  64  46 NE9       30.16F
CLAUDE 12SW      N/A     85  65  50 E5        30.20F
DIMMITT 2NE      N/A     86  61  42 NE8       30.22F
FLOYDADA 2NNE    N/A     89  64  43 N7        30.17F
FRIONA 2NE       N/A     84  61  45 E3        30.24F
GOODLETT 3W      N/A     96  65  36 N13       30.07S HX  98
HART 3N          N/A     85  63  46 E6        30.21F
HEREFORD 2NW     N/A     85  61  44 N5        30.22F
MCLEAN 1E        N/A     86  62  45 N10       30.15F
MEMPHIS 1NE      N/A     90  66  45 N9        30.11F
MULESHOE 2SSW    N/A     84  64  50 E6        30.22F
OLTON 6S         N/A     87  63  45 NE8       30.19F
PALO DURO SP     N/A     87  62  42 N3        30.21F
PAMPA 2E         N/A     80  64  57 N9        30.19F
PLAINVIEW 1S     N/A     88  66  47 N6        30.18F
SILVERTON 7ESE   N/A     83  66  55 N6        30.18F
TULIA 2ENE       N/A     87  64  45 NE5       30.19F
TURKEY 2WSW      N/A     92  66  42 NE7       30.12F HX  95
UMBARGER 3NNE    N/A     83  64  52 CALM      30.23F
$$

TXZ033>036-039>041-045>048-312200
TEXAS TECH WEST TEXAS MESONET/SOUTH PLAINS

CITY           SKY/WX    TMP DP  RH WIND       PRES   REMARKS
AIKEN 3WSW       N/A     87  67  50 N8        30.20F
ANDREWS 2NE      N/A     98  46  17 E12       30.13F
ANTON 6SSW       N/A     87  64  45 NE9       30.17F
BROWNFIELD 2S    N/A     93  51  24 S1        30.15F
DENVR CTY 7WNW   N/A     94  46  19 SE6       30.16F
GAIL 2ESE        N/A     98  54  22 E5        30.09F HX  96
LAMESA 2SE       N/A     98  53  21 SE7       30.14F HX  95
LEVELLAND 4S   RAIN      74  63  68 SW15G26   30.21R
LUBBOCK 3WNW     N/A     92  64  39 N8        30.16F
MORTON 1ENE      N/A     76  62  63 SE12      30.21F
ODONNELL 1N      N/A     94  53  24 N6        30.14F
PLAINS 3N        N/A     91  60  35 NE14      30.18F
RALLS 1SE        N/A     91  65  41 NE7       30.16S
REESE CENTER     N/A     91  63  39 N10       30.16F
SEAGRAVES 1SW    N/A     95  50  21 E6        30.15F
SEMINOLE 2NNE    N/A     96  48  19 E6        30.14F
SLATON 2NE       N/A     89  61  39 E8        30.15F
SNYDER 3E        N/A     98  56  24 NE6       30.09F HX  97
SUNDOWN 8SW      N/A     78  66  67 N7G22     30.20F
TAHOKA 3NNE      N/A     95  57  27 NE6       30.14F
WOLFFORTH 6SSW   N/A     94  60  31 SE8       30.16F
$$

TXZ031-032-036>038-042>044-312200-
TEXAS TECH WEST TEXAS MESONET/ROLLING PLAINS

CITY           SKY/WX    TMP DP  RH WIND       PRES   REMARKS
ASPERMONT 3NE    N/A     93  64  38 N18       30.06F HX  95
FLUVANNA 3WNW    N/A     96  54  24 SE2       30.11F
GRAHAM 5SSW      N/A     97  53  22 S5        30.12F
GUTHRIE 10WSW    N/A     74  68  83 N5        30.10F
HASKELL 1NW      N/A     95  59  30 N18G29    30.04S
JAYTON 1SSE      N/A     81  66  58 N13       30.09F
KNOX CITY 3NW    N/A     98  62  30 NE16G31   30.06S HX  99
LK A HENRY 1NW   N/A     96  64  34 NE12      30.08F HX  97
NORTHFIELD 1S    N/A     94  68  42 NE9       30.10F HX  98
PADUCAH 10SW     N/A     92  65  40 NE6       30.08F
POST 1NE         N/A     97  58  26 N5        30.10F HX  96
RRING SPRGS 3N   N/A     91  68  45 NE9       30.12F HX  95
SEYMOUR 3NW      N/A     84  65  53 NW10      30.06S
SPUR 1W          N/A     82  62  50 NE8       30.13R
WEINERT 2NNE     N/A     92  69  46 N21       30.05S HX  96
WHITE RVR 6NE    N/A     87  70  57 N15       30.14R
$$

TXZ052-054-060>062-072-078-127-140-154-169-312200-
TEXAS TECH WEST TEXAS MESONET/PERMIAN BASIN/
CONCHO VALLEY/BIG COUNTRY/EDWARDS PLATEAU

CITY           SKY/WX    TMP DP  RH WIND       PRES   REMARKS
COYANOSA 2N      N/A     99  55  22 E6        30.07F HX  97
MERTZON 3NNE     N/A     99  59  26 NE7       30.08F HX  98
SAN ANGELO 7NW   N/A    100  54  21 S2        30.05F HX  98
STRLNG CT 4WSW   N/A    100  56  23 NE12      30.08F HX  98
ST LAWRNCE 5SW   N/A     97  55  24 E9        30.10F HX  95
SWEETWATR 11SW   N/A     98  58  26 E7        30.11F HX  97
WALL 1E          N/A     99  57  25 NE5       30.05F HX  97
$$

TXZ055-058-074-075-080-082-312200-
TEXAS TECH WEST TEXAS MESONET/FAR WEST/SOUTHWEST MOUNTAINS/TRANS PECOS

CITY           SKY/WX    TMP DP  RH WIND       PRES   REMARKS
PRSMN GAP BBNP   N/A     96  53  23 N9        30.06F
$$



USA.gov is the U.S. government's official web portal to all federal, state and local government web resources and services.